Theta_e
342 342 341 341 341 341 341 341 341 341 341 341 341 341 340 340 340 340 339 339 339 339 339 340 341 341 342 342 341 340 340 340 339 339 340 340 339 339 338 338 339 340 339 339 338 336 335 335 336 336 336 335 332 332 333 334 334 334 333 333 333 332 333 334 333 334 335 335 336 335 336 335 334 333 331 330 330 331 331 330 331 332 331 332 332
337 337 337 336 336 338 339 340 341 341 341 340 340 340 340 340 340 339 339 338 339 338 339 340 340 341 341 341 340 339 340 340 339 339 339 339 339 338 338 337 338 339 339 338 337 336 336 336 337 337 335 334 332 329 329 329 331 333 333 333 333 332 333 334 334 335 335 335 334 334 334 333 333 333 331 331 331 331 331 330 331 331 331 332 331
331 331 332 331 331 332 335 337 338 338 339 339 339 339 339 340 339 339 339 339 339 339 339 340 340 340 340 340 339 339 339 338 339 339 338 338 338 337 337 337 337 338 338 337 337 336 336 336 338 338 336 335 333 330 329 329 330 332 333 333 333 331 330 332 333 334 333 333 332 332 332 332 332 331 331 331 331 331 331 331 331 331 331 331 330
327 327 329 329 328 329 331 333 334 334 335 335 337 338 338 338 338 339 339 339 339 339 339 339 339 339 339 339 339 338 337 337 338 338 338 338 338 337 337 337 337 336 337 337 337 336 336 336 337 338 337 335 334 333 331 331 332 333 333 333 332 331 330 330 333 334 333 332 332 333 333 332 333 332 332 333 332 331 331 331 331 330 331 330 329
325 325 325 327 326 327 328 329 331 331 331 332 333 334 335 335 336 337 339 339 339 339 339 338 339 339 339 339 339 338 338 338 338 338 338 338 338 337 338 337 337 337 337 337 337 336 336 336 337 337 336 335 335 334 333 331 332 334 334 333 332 332 331 330 332 333 334 333 332 333 333 333 333 333 333 333 331 331 331 331 330 330 330 330 329
324 324 324 324 325 325 326 327 328 328 329 329 330 331 332 333 334 335 336 337 338 338 339 339 338 338 339 339 338 339 338 338 338 337 337 338 337 337 337 337 337 337 336 337 337 336 336 336 336 335 334 335 335 334 334 333 333 334 333 332 332 332 331 330 332 332 333 334 333 333 334 333 333 333 333 333 332 332 331 331 330 330 330 330 329
323 323 323 324 324 325 326 325 326 326 327 328 328 329 330 331 333 334 335 336 336 337 338 338 338 338 338 338 338 338 338 337 337 338 338 338 337 336 337 337 336 337 337 337 336 335 335 335 335 335 334 336 336 335 335 334 333 333 332 331 331 332 332 332 332 331 332 334 334 335 335 334 333 332 332 333 333 331 331 331 330 330 330 330 329
323 322 323 324 324 325 325 324 324 325 325 326 327 327 328 329 331 332 333 334 335 335 336 337 337 337 337 337 337 338 338 337 337 338 338 338 338 337 338 336 335 337 337 337 336 335 335 335 335 335 334 335 336 335 335 335 334 334 332 332 332 333 333 332 331 331 332 332 333 335 334 334 334 332 331 332 332 332 332 332 331 330 330 331 330
322 322 323 324 324 324 324 324 324 324 325 325 325 326 326 327 328 329 331 332 332 333 334 336 336 337 337 338 338 339 338 338 337 337 337 337 337 337 338 337 337 338 338 337 337 336 335 335 335 334 334 335 335 335 335 335 335 334 333 333 333 333 333 332 332 332 332 331 332 332 332 334 335 332 332 332 333 333 332 331 332 332 331 331 330
322 322 323 323 323 324 324 324 323 323 324 324 324 324 325 325 326 327 328 329 330 330 332 334 334 335 336 337 338 339 339 338 337 337 338 338 338 337 337 337 337 337 337 337 336 336 336 335 335 334 334 335 335 335 335 335 336 335 334 333 334 333 333 332 332 332 332 330 330 330 330 333 335 332 332 333 333 333 331 330 332 332 331 331 331
321 322 322 322 322 322 323 323 323 323 323 323 323 323 324 324 325 326 326 326 328 329 330 331 332 333 334 335 336 336 337 337 337 337 338 338 338 337 337 336 336 336 336 337 337 337 336 336 335 335 335 335 334 334 334 334 334 335 335 333 334 334 333 333 332 333 332 330 330 330 330 332 333 333 332 332 332 333 332 331 331 332 331 331 332
320 320 321 321 321 321 321 322 322 322 322 322 322 323 323 323 324 324 324 325 326 326 328 329 330 331 332 333 334 335 335 335 335 336 337 337 337 337 337 336 335 336 336 336 337 337 338 337 336 335 335 334 334 334 334 334 334 335 335 334 334 333 333 333 332 333 332 331 330 330 330 330 331 333 332 330 333 334 333 333 332 332 331 331 331
319 318 319 319 320 320 320 320 320 321 320 321 321 321 322 322 322 323 323 323 324 324 326 327 328 328 329 331 332 333 334 334 334 334 335 335 335 336 336 334 333 335 336 336 337 337 337 337 336 335 335 334 334 333 334 334 334 335 336 335 334 333 333 333 332 332 332 331 331 331 331 331 330 331 330 330 332 333 332 332 332 332 332 331 331
317 317 317 318 318 318 318 319 319 319 320 320 320 320 320 321 321 322 322 322 323 323 324 325 326 326 327 329 330 331 332 333 333 333 333 334 334 334 335 334 333 335 336 335 336 337 337 336 336 335 335 334 334 334 334 334 334 335 336 335 334 333 333 333 332 332 332 332 332 331 331 331 330 330 331 331 332 332 331 332 333 332 331 331 332
316 315 317 317 317 317 318 318 318 318 318 318 319 319 319 320 320 321 321 321 321 322 323 324 324 325 326 327 328 328 329 330 331 332 332 333 333 333 334 334 333 334 335 335 336 336 337 337 336 336 336 335 335 334 334 334 334 335 335 334 333 332 332 332 332 332 332 332 332 331 331 331 331 331 332 332 332 332 331 331 333 332 330 330 331
315 315 316 317 317 317 317 317 317 318 318 318 318 318 319 319 319 320 320 320 320 320 321 322 322 323 324 325 326 326 327 328 329 330 330 332 333 333 333 333 332 333 333 334 335 335 336 336 336 336 336 334 335 335 334 333 333 334 334 333 332 332 332 332 332 332 332 332 332 332 331 331 330 330 331 331 331 332 332 331 331 331 330 330 330
315 315 315 316 317 317 317 317 317 317 317 317 317 318 318 318 318 319 319 319 319 319 319 320 321 321 323 323 323 324 325 326 328 329 329 330 331 332 333 332 332 333 333 333 334 333 333 333 333 335 335 334 334 335 334 333 333 333 333 332 331 331 332 332 332 332 332 332 332 332 332 332 332 330 330 330 330 332 333 331 331 331 331 330 330
315 315 315 316 316 316 316 316 316 316 316 317 317 317 317 317 317 318 318 318 318 318 318 319 319 320 321 321 321 322 323 325 326 327 328 329 331 332 332 332 333 333 333 333 333 333 333 333 332 333 333 332 333 334 333 333 333 333 332 332 332 331 331 332 331 331 332 332 332 332 331 332 333 332 331 330 330 332 333 332 331 330 331 330 329
315 315 315 316 316 316 316 316 316 316 316 316 316 316 317 317 317 317 317 317 317 318 318 318 319 319 319 319 320 320 321 323 324 325 326 328 330 331 332 332 333 333 333 333 333 333 333 333 333 332 332 333 333 333 333 332 332 332 332 331 331 332 332 331 331 331 332 332 332 333 331 331 334 333 331 330 330 331 333 332 331 330 331 331 330
315 314 315 316 316 316 316 315 316 316 316 316 316 316 316 316 316 316 316 317 317 317 317 318 318 318 318 319 319 319 319 320 321 322 324 326 328 329 330 331 332 332 332 332 333 333 333 332 332 332 333 334 333 333 333 332 331 331 332 332 331 332 331 331 331 331 332 332 331 332 331 331 334 334 331 330 330 330 331 331 331 331 331 331 331
315 314 315 316 315 315 315 315 315 315 315 315 315 315 315 315 315 316 316 316 316 316 316 317 317 317 318 318 318 318 318 319 319 320 321 323 324 325 326 327 329 331 331 332 332 332 332 332 332 332 333 333 332 332 332 332 332 331 332 331 330 331 331 330 330 330 331 332 331 331 331 331 334 335 332 330 329 329 330 330 330 331 331 331 331
314 314 315 315 315 314 314 314 314 314 314 314 314 315 315 315 315 315 315 315 315 315 316 316 316 317 317 317 317 317 317 317 317 317 318 319 320 321 323 324 326 327 329 331 331 331 331 331 332 332 332 331 331 332 332 332 332 331 331 330 329 330 330 330 331 332 332 332 331 331 331 332 334 334 333 331 330 330 330 329 329 330 330 330 330
314 314 315 314 314 314 313 313 313 313 313 313 313 313 314 314 314 314 314 314 314 315 315 315 316 316 316 316 316 316 316 316 316 316 316 317 318 319 320 322 323 325 327 329 330 331 331 331 331 331 331 331 331 332 332 332 332 331 331 330 329 328 329 330 331 332 332 331 331 331 332 332 333 333 333 332 330 330 330 330 329 329 329 330 330
313 314 314 313 313 312 312 311 311 311 311 311 311 311 312 312 312 313 313 314 314 314 314 315 315 315 315 315 315 315 315 315 315 315 315 315 316 318 319 319 320 322 324 326 328 330 331 331 331 331 331 331 331 332 332 331 331 330 331 330 329 329 329 330 330 331 331 331 331 332 332 332 331 331 332 331 330 330 330 330 329 329 329 329 329
312 313 313 312 312 311 311 310 310 310 310 309 309 309 310 310 311 311 312 313 313 313 314 314 314 314 314 314 314 314 314 314 314 314 314 314 315 315 316 317 319 320 322 323 325 328 330 330 330 331 330 330 332 332 331 330 331 331 331 331 331 331 331 330 331 331 330 330 330 331 331 331 331 329 329 330 330 331 331 330 330 330 330 330 329
312 312 311 312 311 311 310 310 309 309 309 309 309 308 308 308 309 310 311 312 312 313 313 313 313 314 314 313 313 313 313 313 313 313 313 313 314 314 314 315 317 319 320 322 324 326 328 330 330 330 330 330 332 332 330 329 330 331 332 331 331 332 332 331 331 331 331 330 330 330 332 331 330 329 330 330 331 331 331 332 332 330 330 330 329
311 311 310 311 311 311 310 310 309 309 309 309 308 308 308 308 307 308 310 311 311 312 312 313 313 313 313 313 312 312 312 312 312 312 312 312 312 313 313 313 314 316 317 319 321 324 326 328 329 329 329 329 330 330 329 329 329 331 332 332 331 332 332 331 331 331 331 331 330 331 331 330 329 331 330 329 331 332 332 333 332 330 329 329 329
310 310 309 310 310 311 310 310 309 309 309 309 309 308 308 307 307 307 308 310 310 311 311 312 312 312 312 312 312 311 312 312 311 311 311 311 311 311 311 311 312 313 313 314 316 319 323 327 328 329 329 328 329 330 329 329 330 331 332 332 332 331 331 331 331 331 331 331 331 331 330 329 329 331 330 329 331 333 332 332 331 330 329 328 328
309 309 309 309 309 310 310 309 309 309 309 309 308 308 308 307 307 307 307 308 309 310 311 311 311 311 311 311 311 311 311 311 311 310 310 310 310 310 310 309 310 310 310 310 312 314 318 322 325 326 327 328 329 329 328 328 329 330 330 331 331 331 331 331 330 330 330 330 330 330 330 330 331 332 332 331 331 330 330 330 331 330 329 327 327
308 308 308 308 309 309 309 309 309 308 308 308 308 308 307 307 307 306 307 308 309 309 310 310 310 310 310 310 310 310 310 310 310 310 310 309 309 309 309 308 308 308 307 307 308 310 312 315 318 321 323 325 325 325 326 327 328 329 330 330 330 330 330 330 330 330 329 329 330 331 331 332 332 332 332 331 330 330 330 330 330 329 328 327 328
307 307 307 308 308 308 308 308 308 308 307 307 309 308 307 307 307 306 306 307 308 309 309 309 309 309 309 309 309 309 309 309 309 309 309 309 308 308 308 307 307 307 306 306 305 306 308 309 312 314 318 320 319 319 323 326 327 329 329 329 329 329 330 330 330 330 330 330 330 331 331 331 331 331 331 331 330 330 330 330 329 329 328 328 328
307 306 306 307 307 307 307 308 307 307 308 308 308 308 307 307 306 306 306 306 307 308 308 309 309 308 308 308 308 308 308 308 308 308 308 308 308 307 307 306 306 306 305 305 304 304 304 305 307 309 312 315 315 315 318 321 324 327 328 328 328 329 330 331 331 330 330 330 330 330 330 330 330 330 330 331 330 330 330 330 329 329 329 330 329
306 306 305 306 307 306 307 307 306 307 308 307 307 307 306 306 306 306 306 306 306 307 308 308 308 308 308 308 308 308 308 308 308 308 308 308 307 307 306 306 306 305 305 304 304 303 303 303 303 304 306 310 311 310 312 315 318 322 325 326 327 329 331 331 330 328 328 329 329 329 329 329 329 329 329 330 330 330 330 329 329 329 329 329 331
306 306 306 306 306 306 306 305 306 307 308 307 306 306 306 306 306 306 305 305 306 306 307 307 307 307 307 307 307 307 307 307 307 307 307 307 307 307 306 306 306 305 305 304 303 303 302 302 302 301 302 305 306 306 308 311 313 317 321 323 325 327 328 329 330 328 328 328 328 328 328 328 329 329 329 329 329 330 330 329 328 327 327 328 330
306 306 307 307 306 305 305 305 307 308 307 306 306 306 305 305 305 305 305 305 305 305 306 306 306 306 306 306 306 306 306 306 306 306 306 306 306 306 306 306 306 305 305 304 303 303 302 302 301 300 300 302 302 302 304 307 310 313 317 320 323 324 325 326 328 329 329 329 328 327 327 328 328 328 329 329 329 329 329 329 327 327 327 328 329
305 306 306 306 304 304 305 305 306 307 305 305 305 305 305 305 305 305 305 305 305 305 305 305 305 305 305 305 305 305 306 306 305 305 305 305 305 305 305 306 306 306 305 305 304 303 302 302 301 300 300 300 300 300 301 304 306 309 312 317 320 322 323 324 326 327 328 328 327 326 327 328 327 327 328 328 328 329 329 328 327 328 329 328 327
304 304 304 304 303 303 304 304 305 305 304 304 304 304 304 304 304 305 305 304 304 304 304 305 304 304 304 304 305 305 305 305 305 305 305 305 304 304 304 304 305 305 305 305 304 304 303 302 301 301 300 299 299 298 299 301 303 305 309 312 316 318 321 323 324 325 326 327 327 326 326 326 326 325 326 327 327 327 327 327 327 328 328 326 324
302 302 302 302 302 302 303 303 304 304 304 304 304 304 304 304 304 304 304 304 304 304 304 304 304 304 304 303 304 304 304 304 304 304 304 304 304 304 304 304 304 304 304 304 304 304 304 303 302 301 300 299 298 298 298 299 301 303 306 309 312 315 319 322 323 324 325 326 326 326 326 326 325 325 326 327 327 326 325 326 327 326 326 324 321
302 302 302 302 302 302 302 303 303 303 303 303 303 303 303 303 304 303 303 303 303 303 303 303 303 303 303 303 303 303 303 304 304 304 303 303 303 303 303 303 303 303 303 303 303 303 303 303 303 302 301 300 299 298 297 298 299 301 304 307 311 313 314 316 320 323 324 324 325 326 326 325 324 325 327 328 328 328 326 325 325 324 325 324 320
302 302 302 302 302 302 302 302 303 303 302 302 303 303 303 303 303 303 303 303 303 303 302 302 302 302 302 302 302 302 303 303 303 303 303 302 303 302 302 302 302 302 302 302 302 302 302 302 302 302 301 300 300 298 297 297 298 299 301 305 308 310 310 311 316 321 323 322 323 323 323 323 323 325 328 327 327 328 326 324 324 324 325 324 320
301 302 302 301 302 302 302 302 302 302 302 302 302 303 303 303 303 303 303 302 302 302 302 302 302 302 302 302 301 301 302 302 302 302 302 302 302 302 302 302 302 302 302 302 302 302 301 301 300 300 300 300 299 298 298 297 297 297 299 302 305 307 307 309 313 317 318 316 316 317 318 320 322 324 326 327 326 327 325 322 323 324 324 322 319
300 301 301 301 302 302 302 302 302 302 302 302 302 302 303 303 303 303 302 302 302 302 302 301 301 301 301 301 301 301 301 301 301 302 302 302 301 301 301 301 301 301 301 301 301 301 301 300 300 299 299 299 298 297 297 297 297 297 297 299 301 303 306 307 308 309 310 309 309 310 313 316 318 320 323 323 324 324 323 321 322 323 321 319 317
300 301 301 302 302 302 302 302 302 302 302 302 302 302 302 302 303 303 302 302 302 301 301 301 301 301 301 301 301 301 300 300 300 301 301 301 300 300 300 301 301 301 301 301 301 301 301 300 299 299 298 298 297 297 297 297 297 297 297 297 298 300 303 305 303 301 302 304 306 307 309 311 312 314 316 318 318 318 318 318 319 319 317 316 316
301 301 302 302 302 302 302 302 302 302 302 302 302 302 302 302 302 302 302 302 302 301 301 301 301 301 301 300 301 301 300 300 300 300 300 300 300 299 299 299 300 300 300 301 301 300 300 300 299 299 299 298 297 296 296 296 297 297 297 297 297 297 299 301 300 297 297 299 302 304 305 307 307 309 310 312 313 313 313 314 314 314 313 313 314
301 301 301 301 302 302 301 301 302 302 301 301 301 301 301 301 302 302 302 301 301 301 301 300 301 301 301 300 300 300 300 300 300 299 299 299 299 298 298 298 299 299 300 300 300 300 300 300 300 299 299 298 297 296 296 296 297 297 297 297 297 297 297 298 298 297 296 297 299 301 303 304 305 305 307 308 308 308 309 310 310 310 310 310 309
301 301 301 301 301 301 301 301 301 300 300 300 301 301 301 301 302 302 301 301 301 301 300 300 300 300 300 300 300 300 300 300 300 299 299 298 298 298 298 297 298 298 299 299 299 299 300 300 299 298 298 298 297 296 296 296 296 296 297 297 297 298 298 297 297 297 297 297 297 299 300 302 302 303 304 304 304 304 305 306 306 307 307 306 306
300 300 300 301 301 300 300 300 300 300 300 300 300 300 300 301 302 301 301 301 300 300 300 300 300 300 300 300 300 299 300 300 300 300 299 298 298 298 298 297 297 297 298 298 298 298 299 299 298 297 297 297 296 296 295 295 295 295 296 296 297 297 298 298 297 297 297 297 297 297 297 298 299 300 300 300 301 302 302 302 302 302 302 302 302
301 301 301 301 300 300 299 299 300 299 300 300 301 300 300 301 301 301 301 301 300 300 300 300 300 300 300 300 300 299 299 299 300 300 299 299 298 298 298 297 297 297 297 297 297 297 297 298 297 296 296 296 295 295 295 295 295 295 295 296 296 296 297 297 298 297 297 297 298 298 297 297 297 297 297 297 297 298 298 297 297 298 298 298 298
301 301 301 301 300 299 299 299 299 300 300 300 301 301 301 301 301 301 301 301 300 300 300 300 300 299 299 300 300 299 299 299 299 300 300 298 297 297 298 297 296 295 295 296 296 295 295 296 297 296 295 294 294 294 295 296 296 296 295 295 296 296 296 296 297 298 298 298 298 297 297 296 296 295 295 295 295 295 295 295 295 295 295 295 295
300 300 300 300 299 299 300 300 300 300 300 301 301 301 301 301 301 301 301 301 301 300 300 300 300 299 299 300 300 300 299 299 299 299 300 299 297 297 297 297 296 295 295 295 294 294 293 294 295 295 294 293 293 294 295 297 297 296 296 296 296 296 296 296 296 297 297 296 295 294 294 294 294 294 294 293 294 294 295 295 295 295 295 295 295
300 300 300 300 299 300 300 300 301 301 301 301 301 301 301 301 301 301 301 300 300 300 300 300 300 299 299 299 300 300 299 299 299 299 299 299 299 298 297 297 296 295 295 294 294 293 293 293 294 294 294 293 293 294 294 295 296 297 297 296 296 296 296 296 296 296 295 294 293 293 292 292 292 292 293 293 293 293 294 294 294 294 294 295 294
Wind_Speed
12 14 14 13 10 8 6 5 6 5 4 3 1 1 1 0 1 1 0 2 4 6 7 8 9 9 9 9 9 10 10 10 10 10 9 8 7 7 8 9 9 10 10 11 12 13 13 15 16 16 18 18 18 18 16 14 12 13 18 18 16 19 18 15 13 12 11 9 8 7 8 10 11 11 12 12 13 12 11 11 11 10 9 9 8
13 16 15 15 13 11 10 8 8 7 7 7 5 4 3 1 1 1 1 4 5 6 7 8 9 9 8 8 9 9 10 9 9 9 8 8 8 8 9 10 11 10 9 11 12 13 14 14 15 17 18 18 18 18 17 17 16 15 18 19 18 21 19 14 14 14 13 10 8 6 6 9 12 12 13 14 13 12 12 12 11 10 10 9 9
12 14 16 16 17 16 15 14 13 12 12 12 9 7 6 5 3 1 2 4 5 5 7 7 8 8 8 9 9 9 10 8 8 9 8 9 10 11 11 11 12 11 10 12 13 14 15 15 14 16 17 18 19 19 18 19 19 18 19 20 18 18 20 17 15 17 14 10 8 6 5 6 8 12 15 15 14 13 13 13 12 11 11 10 10
11 12 13 14 15 16 16 15 15 14 14 13 11 10 9 9 7 4 2 3 3 4 5 7 7 8 8 8 8 9 9 9 8 9 9 9 11 12 12 12 13 13 11 12 13 15 15 15 15 16 18 19 19 20 21 20 19 20 21 21 19 19 20 18 14 16 14 9 8 6 4 5 6 9 13 14 14 13 13 14 12 11 12 11 11
11 11 11 13 14 14 15 14 14 14 14 14 13 12 11 10 10 7 5 3 3 3 5 6 6 7 7 6 6 7 8 8 8 8 8 9 10 10 10 11 13 13 12 13 14 15 15 16 17 19 20 20 21 21 22 22 20 21 22 23 24 23 19 14 13 16 16 14 12 6 3 4 5 8 11 11 14 15 14 14 13 13 13 12 12
10 10 10 11 12 12 13 14 14 14 13 12 12 13 12 11 10 9 7 5 5 5 5 6 6 6 6 6 6 6 8 8 7 8 8 8 9 9 8 10 12 14 14 14 15 16 16 17 18 20 20 20 24 25 23 23 22 22 24 25 26 25 20 15 14 17 20 20 19 12 7 5 2 7 8 6 11 15 15 15 14 14 14 13 13
9 10 11 11 11 12 13 13 13 13 12 11 11 12 12 11 11 10 8 7 7 7 7 7 8 7 7 8 8 8 9 10 9 8 9 9 9 9 9 10 12 15 15 14 16 17 17 17 18 20 21 20 24 25 24 25 25 25 25 26 27 24 22 21 18 17 19 21 21 17 13 9 4 7 7 5 7 9 13 16 14 15 15 14 14
8 9 10 11 12 12 12 13 12 12 11 11 11 11 11 11 11 11 9 7 8 9 10 10 9 8 8 9 9 9 10 10 9 8 9 10 10 10 10 11 12 14 15 14 15 16 17 18 19 22 23 22 23 25 26 25 25 27 26 26 27 25 24 26 23 18 17 19 20 19 17 14 10 11 12 10 9 6 10 13 13 16 16 13 13
9 9 10 11 12 12 12 12 11 11 11 11 10 10 10 10 11 10 10 8 9 11 11 11 11 9 9 9 9 10 10 10 10 9 9 9 10 10 10 11 12 14 15 14 14 16 18 19 21 23 23 22 22 24 25 24 24 27 28 27 27 27 27 27 25 22 20 19 19 20 21 17 12 14 16 15 10 7 9 10 11 14 14 14 14
9 9 10 11 11 11 11 11 11 11 11 10 10 10 10 10 11 11 10 9 9 10 11 11 11 10 10 10 10 10 10 11 11 11 11 10 11 11 10 12 13 14 15 14 14 16 18 18 19 21 22 23 24 23 23 23 23 26 29 29 28 29 29 29 27 26 24 21 20 21 21 16 13 12 14 15 11 10 10 10 13 14 12 14 16
7 8 9 10 10 10 10 10 10 11 11 10 10 10 10 11 11 11 11 10 10 10 10 11 11 11 11 11 11 11 12 13 13 13 13 12 13 12 12 12 12 13 14 15 14 14 16 17 18 18 18 20 23 24 24 25 25 24 25 29 31 30 29 28 28 27 25 23 23 23 22 20 18 14 14 18 14 11 9 9 14 17 15 16 17
7 7 8 9 9 10 10 10 10 11 11 11 11 10 10 11 11 11 11 11 11 11 11 11 11 10 11 11 12 12 13 13 14 14 14 14 15 14 13 12 12 12 13 15 15 13 14 16 17 18 17 18 20 22 24 24 25 24 23 28 32 31 29 28 27 27 26 25 24 25 25 24 22 17 16 19 16 12 9 7 12 17 14 15 18
7 6 7 8 9 9 10 10 10 10 11 11 11 11 10 11 11 11 11 11 11 11 11 11 11 10 11 11 12 12 12 13 14 15 15 15 16 16 14 14 15 13 12 13 14 13 15 16 17 18 19 19 20 22 23 22 23 23 22 27 31 30 29 29 29 28 28 28 26 25 25 24 24 22 18 16 15 14 12 9 11 16 13 12 17
6 6 6 7 8 9 9 9 9 10 11 11 11 12 11 11 12 12 12 12 12 12 11 11 11 10 11 11 12 12 12 12 13 14 14 14 16 17 15 15 15 14 13 14 14 14 15 16 17 18 19 20 20 22 23 23 23 23 22 25 29 30 28 28 29 29 28 28 27 25 24 24 25 22 18 16 14 17 16 12 8 12 14 12 14
6 6 7 8 8 9 9 10 10 11 12 12 12 12 12 12 13 13 13 13 13 13 12 12 11 11 11 11 11 12 12 12 13 13 14 14 15 16 16 16 16 15 15 15 15 16 16 16 17 17 18 19 19 21 23 23 24 24 22 24 28 29 28 29 30 29 28 28 27 25 24 23 23 21 18 17 15 17 19 16 11 9 10 10 10
7 7 7 9 9 9 10 11 11 11 12 13 12 12 12 12 13 13 13 14 14 14 13 12 12 12 11 11 12 12 12 12 13 14 16 15 15 16 17 18 17 16 16 15 16 18 17 17 17 17 18 19 19 21 23 24 26 25 23 25 28 28 28 30 30 29 30 29 27 25 23 23 24 25 22 18 17 15 15 17 17 14 11 8 8
7 7 7 9 10 10 11 11 12 12 12 12 12 12 12 12 13 13 14 14 14 14 14 13 13 12 12 12 13 13 13 13 13 14 16 16 15 16 17 18 17 16 17 16 17 19 20 20 18 17 20 20 20 22 24 24 25 26 26 26 28 29 28 28 29 30 30 29 27 24 23 23 23 25 22 18 19 16 14 17 18 16 13 8 7
8 8 8 9 10 10 10 10 11 11 11 12 12 12 11 12 12 13 14 15 15 14 14 14 14 13 13 14 14 14 13 13 14 14 15 16 17 17 17 18 16 15 16 16 18 18 20 20 18 18 21 21 20 22 23 22 23 24 27 27 26 27 28 28 29 31 29 26 25 24 24 23 22 24 22 21 22 19 15 18 17 16 15 11 9
7 8 8 9 10 10 10 10 11 11 11 12 12 12 12 12 13 13 14 14 14 14 14 13 13 13 14 15 15 14 14 14 14 15 15 16 17 18 18 18 17 16 15 16 18 19 19 18 18 19 19 19 19 20 21 22 22 23 25 28 25 22 26 28 28 30 28 26 26 25 25 23 22 24 24 24 25 22 18 18 18 18 18 16 13
7 7 7 9 10 10 10 10 11 12 12 12 12 13 13 13 13 14 14 14 13 13 13 13 13 14 15 15 15 15 14 14 15 16 16 16 16 17 18 19 19 18 16 16 17 19 19 18 19 19 17 17 18 19 20 21 23 23 22 27 29 24 25 27 26 26 27 26 27 27 25 23 20 22 25 24 25 25 23 19 17 17 15 15 13
8 7 8 9 9 10 11 11 12 12 13 13 13 14 14 14 14 14 14 14 14 14 14 14 14 14 15 15 16 16 15 16 17 16 16 16 17 17 18 19 19 19 18 18 17 19 20 19 19 19 18 19 19 19 21 20 22 24 23 26 31 28 27 27 25 25 27 26 27 27 26 24 20 19 22 24 26 27 26 21 18 18 16 18 18
8 8 8 9 9 10 11 12 12 13 13 14 14 14 14 15 15 15 15 15 14 14 14 15 15 16 16 16 16 16 16 17 18 17 16 17 18 18 19 19 20 20 20 20 19 20 21 21 20 19 19 20 20 20 20 18 20 23 24 27 29 28 27 25 21 23 25 24 24 25 25 24 21 20 22 24 27 28 27 24 23 22 19 20 21
9 8 9 9 10 10 11 12 13 13 14 15 15 15 15 16 16 15 16 15 15 15 15 15 16 17 17 17 17 17 17 18 18 18 18 19 19 19 19 19 20 20 20 22 22 21 22 22 21 20 19 19 19 19 19 18 19 20 21 25 27 26 26 24 22 23 24 22 22 24 25 24 22 22 22 24 26 26 25 24 24 24 18 15 18
9 8 9 10 10 11 12 13 14 14 15 15 16 16 16 16 17 16 16 16 16 16 17 17 17 18 18 18 18 18 18 19 19 19 19 20 20 19 19 19 20 20 20 22 23 23 23 23 22 21 21 19 18 19 19 18 18 18 19 22 24 23 25 26 25 25 24 23 24 26 26 25 25 24 23 25 26 24 23 23 23 23 18 13 15
9 9 9 10 11 12 13 13 14 14 14 15 16 16 16 17 18 17 17 17 17 17 18 18 18 18 18 18 19 19 19 20 20 20 21 20 20 20 20 20 20 21 20 21 23 23 23 23 23 22 21 20 16 16 18 18 17 16 18 20 21 21 23 25 24 24 23 24 27 29 26 23 24 26 25 25 26 25 24 24 23 23 19 15 15
9 9 9 9 11 13 13 14 14 14 14 14 15 16 16 17 18 18 17 18 18 18 18 18 18 18 19 19 20 19 20 21 21 21 21 21 21 21 21 21 21 21 21 21 22 23 23 23 24 23 22 19 15 15 18 20 19 18 17 19 20 19 20 22 22 23 24 25 26 28 27 24 25 26 27 26 25 25 25 24 24 24 19 15 16
8 8 9 10 11 12 14 14 14 14 14 14 14 15 16 17 17 17 17 17 18 18 18 18 18 19 19 20 20 20 21 22 22 22 21 21 21 21 21 21 21 22 22 22 22 23 24 24 23 23 23 20 17 17 20 21 22 19 17 18 19 19 18 18 19 21 22 22 23 24 25 26 27 27 26 26 25 24 24 23 26 27 22 17 17
9 9 9 10 10 12 13 13 13 14 14 13 14 15 15 16 17 17 17 17 18 18 18 18 18 19 20 20 20 20 21 22 22 22 22 22 21 21 22 22 22 22 23 24 25 24 23 24 23 23 24 22 18 18 20 20 18 16 17 18 19 20 20 18 18 19 20 23 24 23 25 26 26 25 25 25 26 27 26 25 26 27 24 21 22
9 10 10 10 10 11 12 13 13 14 14 14 14 15 15 16 17 17 17 17 17 18 18 18 19 20 20 20 20 20 21 21 22 22 23 23 23 23 23 23 23 23 24 26 27 27 25 22 21 21 23 22 18 17 18 19 18 18 20 19 18 20 21 20 19 19 20 24 24 22 23 23 22 23 24 26 28 29 29 28 27 26 23 23 24
10 10 10 10 11 11 12 13 13 14 15 15 14 15 16 16 17 17 17 17 17 17 18 19 19 20 20 20 20 21 21 21 22 23 24 24 24 24 23 24 24 24 26 27 28 28 27 26 24 22 21 19 15 13 15 16 18 21 22 19 17 20 20 19 19 20 22 24 22 21 23 22 22 22 24 26 28 28 29 30 28 26 23 24 23
10 10 9 10 11 12 12 13 13 14 15 14 14 15 15 16 17 17 17 17 17 17 18 18 19 19 20 20 20 21 21 21 22 23 23 24 25 24 24 24 25 25 25 27 28 29 28 27 26 25 23 19 16 14 13 13 15 19 20 19 19 21 20 18 18 19 22 22 21 22 23 23 24 24 25 27 28 28 29 29 29 27 24 24 23
9 9 9 9 11 12 12 13 13 13 13 14 15 15 15 15 16 16 17 16 16 17 17 17 18 19 19 20 20 21 21 22 23 23 23 24 24 25 25 25 26 27 26 26 27 29 29 28 28 26 23 21 20 18 15 12 11 16 20 22 22 20 18 18 18 18 20 21 22 24 24 24 25 25 24 26 28 29 29 28 28 28 27 25 23
9 9 10 10 11 12 12 13 13 12 12 14 14 14 14 14 15 16 16 16 16 16 16 17 18 19 19 20 21 21 21 22 23 23 23 23 24 25 25 25 26 27 27 26 26 27 27 28 30 29 25 22 23 25 22 18 13 12 16 21 24 21 17 18 20 20 22 24 25 24 22 21 22 23 25 26 27 28 28 26 26 27 28 25 21
9 9 10 11 12 12 12 13 12 10 11 12 12 12 13 13 14 15 16 16 17 17 17 17 18 18 19 20 21 21 21 22 22 22 23 23 24 25 26 25 25 26 27 27 26 26 25 26 28 31 30 24 25 28 27 23 20 16 13 15 20 22 19 17 18 18 19 21 23 23 22 22 23 23 24 26 27 28 26 26 27 26 26 25 21
8 8 9 11 12 12 12 12 10 10 11 12 12 12 13 13 13 14 15 16 17 17 17 18 18 19 19 20 20 21 21 22 22 22 23 23 23 24 25 25 25 26 26 27 27 26 25 25 26 29 31 27 25 30 32 26 23 21 17 15 17 20 21 18 16 14 14 17 20 21 22 24 26 26 25 25 26 26 24 25 27 25 22 20 19
8 8 9 11 11 11 11 10 10 11 12 11 11 12 12 12 13 14 15 16 16 17 18 18 19 20 20 20 20 21 21 22 22 22 23 23 23 23 23 24 23 24 24 25 25 25 25 26 25 26 31 31 28 32 35 29 24 23 20 17 16 17 20 20 20 17 14 15 19 21 22 23 24 25 26 26 25 24 24 26 27 24 19 15 16
8 8 9 9 10 10 10 10 10 11 10 11 11 12 12 12 13 14 14 15 16 17 18 18 19 20 20 20 20 21 21 22 22 23 23 23 23 23 23 23 22 22 23 24 23 24 26 28 26 25 28 31 31 35 38 34 28 24 22 19 15 13 15 18 22 22 18 16 19 20 21 22 22 20 22 25 27 27 26 26 26 22 17 13 12
8 7 8 7 8 9 10 9 10 10 10 11 12 12 12 13 13 14 14 15 16 17 18 18 18 19 20 21 21 21 21 21 22 22 23 23 22 22 23 23 23 22 23 23 22 22 24 26 26 24 26 29 30 35 39 38 32 26 23 20 14 11 11 13 17 22 21 19 21 21 20 20 22 21 21 23 27 29 27 23 20 19 17 13 10
7 7 7 7 7 8 9 9 10 10 11 11 11 12 13 13 14 14 14 15 16 16 17 17 17 18 19 20 21 21 21 21 22 22 22 22 22 22 22 23 23 23 23 23 23 22 22 23 24 26 28 30 29 32 39 41 36 30 25 19 13 11 12 12 13 15 18 16 16 19 21 22 24 24 23 23 25 28 25 19 18 19 17 14 12
7 6 6 6 7 7 8 9 10 11 11 11 11 12 13 13 13 14 14 15 14 15 15 16 17 18 18 19 21 21 21 21 21 21 22 22 22 22 23 22 22 23 24 24 24 24 23 23 24 25 29 31 30 31 38 43 40 35 29 20 13 12 14 15 13 8 12 10 7 10 15 21 25 26 26 24 25 29 24 17 18 23 20 16 15
7 5 6 6 6 6 7 9 10 10 10 11 11 11 12 13 13 14 14 14 14 14 15 16 16 17 18 19 20 21 21 20 21 21 21 22 23 23 23 23 22 22 23 24 24 24 24 24 24 24 25 28 30 31 36 41 41 39 34 25 18 15 14 14 11 3 4 1 1 4 7 15 21 22 23 23 24 28 25 16 14 19 19 18 18
8 5 4 5 5 6 7 8 9 9 10 11 11 12 12 12 13 14 14 14 14 14 14 15 16 17 18 18 19 21 21 21 21 22 22 23 23 23 23 23 23 22 23 24 24 24 24 25 25 25 25 27 30 32 36 39 40 40 38 32 25 18 13 11 11 8 6 6 5 2 2 7 10 12 15 19 20 23 22 14 10 12 16 21 20
7 6 4 5 6 7 7 8 8 9 9 10 11 12 12 12 13 13 13 13 14 14 14 15 15 17 18 18 18 20 21 21 22 22 22 23 23 24 24 24 24 23 23 23 24 24 24 26 26 26 26 27 29 32 36 37 37 37 38 36 33 26 17 12 15 15 12 9 7 5 3 1 2 5 11 13 13 13 12 10 12 15 20 22 20
6 6 6 6 7 7 7 7 8 8 9 9 10 11 11 11 12 12 12 13 13 14 15 14 15 16 17 17 18 18 19 20 22 22 22 22 23 24 25 24 24 24 24 23 23 23 23 25 26 26 27 28 27 29 35 37 36 35 36 35 34 33 27 22 21 21 18 15 13 10 8 7 7 9 13 15 15 14 16 19 20 19 18 17 16
7 6 6 7 7 7 7 8 8 8 8 8 9 9 10 10 11 11 11 12 13 14 14 15 15 16 16 17 18 18 18 18 20 22 23 22 22 23 25 25 24 23 24 23 22 22 22 24 25 25 26 27 25 26 32 37 36 35 35 34 33 32 31 29 28 26 24 22 20 18 16 16 17 17 18 21 22 21 20 21 21 20 17 16 16
7 6 6 7 8 8 7 8 7 7 8 8 8 9 10 10 10 10 10 11 12 14 15 15 16 16 16 17 17 18 17 17 18 21 23 22 23 23 23 23 23 23 23 22 22 22 22 23 24 23 23 24 23 23 28 35 35 33 33 34 33 32 30 30 30 28 26 26 25 24 25 25 24 23 24 26 26 25 23 22 22 21 20 19 20
7 6 6 7 8 8 7 7 7 7 8 8 8 9 9 9 9 10 10 10 11 13 14 15 16 16 16 17 17 17 18 17 15 17 19 21 22 22 21 21 22 22 22 22 23 23 22 21 22 23 22 22 22 22 26 31 33 32 31 31 31 32 31 29 29 28 28 28 28 29 31 32 31 30 30 30 31 30 29 28 27 25 25 24 23
7 6 7 7 8 8 7 7 7 7 7 8 8 9 9 9 9 10 11 10 10 12 13 14 16 16 16 17 17 17 18 18 15 12 13 17 19 19 17 17 19 20 20 20 21 22 22 21 21 23 23 21 21 23 25 26 27 29 30 30 29 29 29 28 27 25 26 28 28 30 33 34 33 32 32 32 34 36 35 33 32 30 29 27 26
9 8 8 8 8 7 7 7 7 7 7 7 8 8 8 8 9 10 11 11 10 11 13 14 15 16 15 16 17 17 17 19 16 11 9 11 15 17 15 13 15 19 20 20 19 21 21 20 18 20 22 21 20 23 24 22 21 23 25 27 27 26 25 26 25 23 24 27 28 30 32 32 32 32 31 30 32 34 34 33 32 30 30 29 29
10 9 9 8 8 7 7 8 7 7 7 8 8 8 8 8 9 10 10 11 11 11 12 13 14 15 15 15 16 16 16 17 18 15 9 7 9 13 14 13 14 16 19 21 21 22 24 23 19 18 20 21 21 23 23 20 20 20 21 22 24 24 22 23 25 26 27 29 29 29 29 29 29 30 30 29 29 30 31 30 29 28 28 28 28
10 9 9 8 7 7 8 8 7 7 7 8 8 8 8 8 9 10 10 11 11 11 12 13 13 13 14 14 15 16 16 16 17 18 16 11 8 7 9 12 13 14 15 17 20 22 24 26 24 21 19 20 23 24 23 21 18 18 18 18 20 21 21 20 23 27 28 27 25 24 24 25 25 26 26 26 26 26 26 26 25 25 25 24 24
Wind_Direction
66 67 64 64 67 70 70 75 90 97 87 88 83 2 302 241 225 190 231 260 243 244 245 239 239 244 248 254 264 270 271 270 268 267 268 272 270 258 249 236 222 215 209 207 211 217 223 226 221 213 213 216 218 218 214 212 210 213 225 226 229 242 237 215 204 197 197 192 172 178 201 213 207 204 211 209 205 199 190 194 194 188 187 181 185
60 60 55 51 47 46 51 59 65 68 64 59 49 30 29 43 83 117 175 233 240 254 259 250 250 260 267 271 280 286 286 283 282 278 273 276 273 259 253 247 237 226 216 218 221 217 216 220 225 224 222 223 222 222 220 216 212 211 219 222 225 239 243 224 199 194 200 192 178 188 210 224 219 212 217 215 208 200 192 194 193 190 194 186 186
56 52 46 42 37 35 40 45 45 47 50 46 39 38 37 28 26 18 237 232 242 257 267 271 272 278 283 286 293 299 297 298 296 287 278 275 269 261 258 253 246 237 226 229 232 227 218 214 224 227 224 225 222 220 220 217 215 214 213 213 218 235 246 237 208 200 202 187 186 207 206 217 226 220 220 218 208 201 199 197 193 197 198 189 189
54 51 45 39 35 35 38 39 41 43 44 41 33 34 34 26 26 12 303 267 267 255 261 279 288 288 289 292 297 298 295 293 290 283 278 278 276 270 263 255 250 244 235 234 234 232 228 223 227 230 227 228 226 222 221 216 214 215 212 207 208 222 236 238 220 210 208 189 193 213 199 201 218 210 209 214 210 202 206 204 194 200 201 191 194
55 52 44 38 35 35 36 36 41 42 39 36 30 31 35 32 30 24 16 4 321 287 271 273 277 278 278 283 290 292 290 284 281 281 276 274 278 275 268 261 257 250 239 236 235 233 233 234 233 234 234 231 230 229 225 220 215 215 214 209 210 216 222 232 231 222 218 214 218 220 190 216 228 197 191 206 211 203 207 209 198 200 201 193 197
58 55 48 43 39 36 37 37 39 39 33 30 27 28 32 32 30 25 21 16 355 332 309 286 272 265 259 258 265 271 276 277 282 285 277 267 267 269 267 264 261 256 245 237 237 234 235 238 238 239 238 235 235 233 228 224 219 218 218 215 216 217 217 222 226 222 221 224 231 237 222 226 210 177 183 195 208 210 211 210 203 200 199 195 198
60 58 53 47 43 40 39 39 38 37 31 25 25 26 27 26 23 20 16 9 359 346 330 309 291 279 267 265 269 272 274 283 291 287 277 270 267 263 259 258 259 258 251 240 237 236 234 235 238 240 237 237 239 236 232 228 224 223 223 220 218 216 215 219 220 219 224 228 233 239 236 237 222 192 194 171 188 220 218 211 209 202 198 199 200
63 60 55 50 46 44 41 40 39 37 33 30 30 27 26 25 19 16 14 9 0 347 338 330 318 305 289 280 283 286 285 289 294 285 275 270 267 263 256 256 257 256 252 243 237 238 235 232 234 237 234 233 236 237 235 231 227 225 222 219 218 216 215 219 222 219 223 230 231 237 237 235 233 224 217 201 187 200 206 207 212 205 199 199 201
67 62 56 51 47 45 43 43 41 38 35 34 33 29 28 26 22 19 15 7 360 350 342 340 337 326 308 297 294 296 293 290 290 285 279 271 266 263 254 251 250 250 249 244 237 236 238 237 237 238 236 232 232 234 236 234 231 229 225 221 220 221 221 220 222 219 220 226 229 236 238 230 228 231 230 225 208 189 195 199 202 201 198 199 203
69 65 59 52 46 45 42 41 39 34 31 30 29 29 28 25 24 23 18 8 0 353 346 343 341 333 322 314 307 303 298 292 289 285 281 275 269 265 256 251 249 252 253 248 241 236 237 239 239 239 238 236 233 231 235 236 235 232 228 225 223 223 224 220 220 222 222 224 224 233 240 230 220 222 226 227 215 204 209 198 191 194 194 196 202
68 64 57 49 41 40 37 35 34 29 23 22 22 24 24 23 20 19 17 10 3 358 353 348 343 336 332 328 317 310 305 299 295 290 286 280 274 268 262 258 255 258 261 257 250 240 240 241 239 240 241 241 239 234 237 238 236 233 226 224 223 221 223 221 220 221 222 224 225 228 233 230 224 218 211 214 214 209 209 195 191 196 194 193 196
59 54 48 40 34 33 31 30 30 25 20 18 17 19 19 19 15 13 12 6 2 359 354 350 346 340 336 330 322 316 308 302 298 295 295 291 285 279 275 273 268 264 263 262 258 246 244 246 242 241 240 241 241 237 238 237 234 231 223 222 224 221 222 222 219 219 219 223 224 220 225 231 234 234 219 214 211 202 203 197 189 194 197 195 193
54 48 43 37 32 30 27 28 29 26 25 22 21 20 19 18 13 11 10 5 1 355 350 348 344 341 335 327 324 320 310 302 298 297 298 299 296 291 289 285 278 272 266 263 261 251 247 249 244 240 238 240 240 237 236 234 231 229 221 222 225 222 221 222 221 219 218 222 221 218 224 232 238 242 237 228 211 191 201 210 191 194 197 192 189
57 50 48 41 37 34 30 32 33 31 30 27 27 25 22 21 16 14 12 6 2 355 351 348 342 338 332 326 324 322 317 311 305 301 300 298 296 295 294 289 279 275 272 267 264 257 250 248 245 243 241 239 238 237 236 232 230 229 222 220 223 222 220 222 222 219 219 223 224 222 227 232 237 240 237 236 213 183 198 213 193 200 198 183 187
61 57 53 47 43 40 37 37 35 34 32 29 29 28 25 24 20 18 15 9 5 359 354 349 343 337 331 329 328 324 321 318 314 310 303 293 289 290 289 284 280 276 274 272 268 261 253 247 246 245 244 242 240 240 238 233 228 226 223 221 222 222 222 222 221 219 221 224 222 222 225 227 236 240 231 235 225 193 199 205 187 199 199 180 190
63 58 54 50 47 43 39 38 35 33 33 29 28 28 26 25 22 20 17 12 9 4 359 355 347 340 334 334 333 328 323 318 315 314 309 300 290 286 282 280 282 281 278 277 274 270 264 257 251 247 246 245 241 241 239 235 229 224 224 225 224 223 221 220 220 221 223 222 221 222 225 225 233 239 233 233 237 219 209 208 200 205 202 180 193
65 61 56 52 49 46 41 39 37 33 31 29 27 26 26 23 21 19 16 12 9 6 2 359 352 347 343 339 335 330 325 320 316 313 312 309 299 290 284 284 285 285 283 280 277 276 272 267 261 255 253 248 243 243 241 239 235 229 226 225 225 224 221 219 220 221 221 220 220 222 226 226 229 235 231 228 239 241 227 221 215 211 206 184 185
70 66 62 56 52 49 44 41 42 38 34 31 27 25 23 21 19 18 15 11 9 5 1 357 354 352 349 344 340 335 328 322 318 315 311 308 303 298 294 290 288 287 288 285 280 278 275 272 265 261 261 256 249 246 241 239 238 234 228 225 223 223 222 221 221 221 219 217 218 218 222 225 224 226 223 219 233 247 239 228 223 214 213 210 197
73 68 63 58 55 49 45 43 41 40 36 32 29 25 22 21 20 18 14 10 7 4 359 355 353 352 350 347 345 343 337 329 323 319 315 307 304 304 303 299 294 289 287 285 280 276 274 272 267 262 260 254 248 245 240 238 237 235 231 227 224 222 221 220 221 222 219 216 216 217 221 225 225 225 221 216 226 241 243 233 225 214 212 221 218
71 69 64 58 55 50 46 44 41 40 36 32 31 27 23 23 22 18 14 10 7 3 358 356 355 352 350 348 347 347 344 340 334 327 320 314 311 310 309 309 305 298 288 281 279 279 274 270 269 265 258 252 251 248 243 239 236 234 232 228 228 226 223 221 221 222 220 218 218 219 222 225 225 223 220 219 222 228 237 238 227 212 207 216 211
71 68 63 57 54 50 46 44 42 40 37 34 31 29 25 23 21 17 13 9 6 3 359 358 357 354 352 351 350 349 347 346 343 336 329 323 321 317 313 312 312 308 301 292 284 281 278 272 269 266 261 259 258 252 247 241 235 234 234 232 230 229 225 221 220 221 220 219 218 219 223 225 224 219 219 223 219 217 230 240 230 216 207 205 202
71 67 62 56 52 49 45 43 42 39 34 32 30 29 26 24 21 18 14 10 7 3 360 359 359 357 356 354 352 351 349 348 346 343 338 332 326 322 317 314 312 310 309 304 293 283 278 274 270 267 265 264 261 253 247 240 234 233 235 234 230 227 226 222 218 218 217 214 213 218 222 221 218 216 218 225 221 214 223 233 231 225 210 195 198
73 69 63 57 52 48 45 42 41 38 33 29 27 27 25 21 19 18 15 12 9 5 2 2 1 359 359 357 355 354 351 350 349 346 342 337 331 326 322 318 314 311 309 306 300 290 281 276 272 268 266 264 259 251 243 236 234 234 232 231 229 226 225 224 221 219 216 213 213 219 222 219 215 215 219 224 220 216 224 231 232 233 221 196 194
78 72 66 61 54 49 45 41 39 37 32 29 26 24 22 19 16 14 12 10 9 7 5 5 3 1 1 359 357 355 354 352 351 347 344 340 336 332 328 323 317 312 308 306 304 297 287 280 274 268 264 263 259 251 246 240 235 234 229 229 231 230 227 227 226 223 220 216 218 221 223 222 217 213 218 223 219 218 223 223 225 229 224 206 195
81 75 69 61 54 49 45 40 38 35 31 30 27 23 20 18 15 13 11 9 9 8 6 6 4 2 2 1 359 357 356 354 352 349 345 342 340 337 333 328 322 316 309 305 305 302 295 285 277 273 269 268 264 253 247 240 232 231 231 229 230 229 228 230 229 227 224 221 224 227 224 220 216 212 215 220 218 217 219 216 222 227 222 219 211
82 78 71 62 55 50 45 40 37 33 30 28 26 23 20 17 14 13 11 9 7 6 7 7 5 4 4 2 1 360 357 356 354 351 348 345 343 341 338 334 329 323 317 309 305 304 301 294 286 284 281 275 270 260 249 239 232 230 231 231 230 228 228 230 230 230 229 226 226 229 224 218 219 218 215 214 213 214 217 216 222 225 220 223 228
83 78 71 64 57 50 45 40 35 32 29 27 26 22 19 16 14 13 11 9 7 5 7 8 6 7 6 4 3 1 359 358 356 353 351 348 346 345 343 341 336 331 327 322 316 310 305 302 296 292 289 284 279 272 260 245 234 229 231 235 234 233 234 233 233 232 231 229 227 229 230 225 222 222 217 212 211 212 213 216 222 225 222 223 231
84 75 67 63 56 48 43 37 33 31 28 26 26 22 18 15 12 12 10 9 9 6 6 8 8 9 8 5 4 1 359 359 357 356 355 353 350 348 347 345 343 340 338 336 335 329 319 309 302 296 294 290 281 271 266 256 243 232 232 238 238 239 241 238 236 234 231 232 231 230 233 230 223 224 222 215 213 215 214 216 221 224 222 224 228
82 71 62 57 53 47 42 36 32 29 26 24 22 20 17 14 12 12 10 8 8 7 6 8 10 10 9 6 5 3 1 360 359 359 359 357 355 353 351 350 349 347 346 347 349 349 345 335 323 313 305 298 286 274 272 269 262 249 238 237 237 238 240 239 237 238 234 234 234 232 231 230 225 225 224 219 218 221 219 217 219 221 219 222 226
76 68 60 54 50 44 39 36 32 28 26 24 21 19 14 11 12 11 8 8 8 7 7 9 11 11 9 7 6 4 2 2 1 1 0 360 359 357 355 354 353 351 351 354 357 358 358 357 352 346 337 326 316 306 292 278 270 259 242 233 237 238 238 237 236 237 238 235 234 233 232 232 230 229 229 225 222 223 223 222 222 220 217 221 224
76 68 61 54 49 42 36 33 30 29 26 20 17 19 15 10 11 11 9 7 8 8 8 10 12 11 9 8 7 6 4 4 3 2 1 2 2 1 0 359 358 357 355 356 0 2 1 1 359 359 360 358 354 342 314 286 272 261 244 235 240 241 237 235 233 234 237 235 232 233 235 236 234 234 234 232 229 227 226 226 224 218 216 222 223
78 69 61 55 49 41 33 29 27 28 25 18 15 18 15 10 10 11 10 9 10 11 10 11 13 12 10 9 8 7 6 6 5 4 3 3 3 3 3 3 2 1 359 358 0 2 3 4 3 2 3 359 354 352 339 316 287 264 251 244 244 244 239 235 234 232 233 233 232 234 238 239 236 233 232 231 231 230 229 228 226 220 219 223 220
75 67 60 53 47 41 32 30 29 24 21 20 17 17 16 12 10 12 12 12 15 14 11 12 13 13 12 10 9 8 8 6 5 5 4 3 5 6 5 5 3 2 2 2 2 3 3 5 4 4 4 357 349 351 348 338 323 288 262 251 245 246 247 242 238 236 236 236 234 231 232 236 237 235 232 228 228 231 229 227 226 221 217 219 216
78 69 61 53 47 40 33 34 32 23 21 22 19 18 18 14 12 15 15 16 18 17 15 13 12 13 13 11 11 10 9 8 7 5 4 4 4 5 6 6 5 4 5 4 3 5 5 5 5 5 6 2 352 351 350 342 334 320 293 269 254 248 249 250 245 238 235 236 234 229 227 230 233 232 230 226 226 231 231 227 225 221 216 217 218
81 71 63 54 47 40 38 36 26 21 25 25 20 20 20 18 17 18 18 18 19 20 19 16 13 13 13 11 11 10 9 9 9 7 7 6 3 4 4 4 5 7 8 7 5 5 6 6 7 5 6 6 357 353 354 348 338 329 313 293 274 258 252 254 252 244 237 233 230 228 225 226 231 234 233 229 225 226 229 228 227 224 220 217 216
79 69 58 52 46 41 41 35 24 26 32 27 22 21 22 22 21 21 21 20 20 21 21 19 16 15 14 11 10 10 9 9 9 9 9 7 5 5 3 0 0 3 6 7 8 9 8 7 7 7 8 8 2 357 358 354 346 339 325 305 286 267 259 257 254 253 252 245 239 235 231 231 234 234 233 231 227 222 223 225 223 219 211 203 200
83 73 60 52 50 49 46 39 34 36 36 31 26 24 25 27 25 23 23 22 22 22 21 20 19 18 16 14 11 10 9 8 9 10 9 8 7 6 4 3 1 359 1 2 4 9 11 8 8 8 8 9 6 3 3 360 353 349 338 322 303 278 265 261 256 254 255 256 253 246 238 238 240 234 227 225 221 217 218 219 216 208 194 182 191
91 83 73 61 55 54 51 47 45 41 38 37 34 29 28 30 27 23 23 24 24 23 20 19 19 17 16 16 13 11 10 10 11 10 9 8 7 6 5 6 5 2 1 360 358 2 8 9 12 11 9 8 7 5 7 6 360 355 349 337 323 301 284 277 268 259 254 258 259 249 235 233 236 232 223 221 219 215 214 214 207 197 189 182 189
101 95 89 78 68 61 54 51 48 44 38 36 37 35 31 30 28 25 23 24 23 22 19 18 16 16 16 16 15 12 11 12 13 13 11 9 8 7 5 5 7 7 5 3 1 0 2 6 11 12 10 10 9 8 11 12 7 2 359 351 341 330 319 317 305 270 253 256 255 240 230 228 229 224 217 219 221 215 214 215 204 194 190 185 185
103 98 92 87 77 64 57 52 48 45 42 36 36 37 35 31 28 26 25 24 20 19 20 18 15 15 17 18 17 14 13 13 12 12 14 12 10 10 8 6 8 8 7 7 7 6 5 5 6 8 9 9 9 9 13 16 15 10 7 3 355 349 343 342 339 288 244 250 246 220 220 224 224 221 218 220 222 218 219 219 206 199 195 185 178
99 88 81 86 79 62 59 55 47 44 44 39 36 36 35 32 29 27 26 23 17 16 19 19 18 17 17 19 20 17 16 16 14 12 14 15 12 11 11 9 8 8 8 8 9 9 9 8 7 7 7 7 7 8 11 17 20 19 16 13 7 2 357 354 359 38 166 176 99 148 195 212 214 214 217 218 218 219 222 222 211 205 191 172 164
100 97 96 102 96 75 63 56 49 45 43 41 37 34 32 30 28 26 26 24 19 16 17 19 21 20 18 19 21 21 20 19 17 14 14 16 14 11 11 11 10 8 9 10 11 11 10 10 10 9 7 6 7 9 12 16 21 24 25 24 20 12 3 2 12 36 74 71 56 55 215 221 217 211 209 211 215 219 224 225 217 200 172 156 150
119 123 129 120 101 82 67 57 49 44 40 38 37 33 29 27 26 25 25 25 22 19 18 20 21 21 20 18 18 21 23 22 20 18 17 18 17 13 11 12 11 9 8 10 12 13 11 11 11 10 9 7 7 10 15 18 21 26 30 33 32 28 25 29 29 24 26 44 51 34 17 318 219 185 179 185 195 201 194 170 160 160 153 148 144
123 109 106 104 93 82 72 60 49 42 36 33 33 32 27 25 24 23 24 27 25 22 21 22 22 22 21 19 18 19 22 21 19 19 18 19 19 17 14 12 12 11 10 11 12 13 13 13 12 11 11 9 7 9 16 20 22 25 30 35 38 39 41 48 50 41 34 47 69 75 72 82 103 122 135 138 138 138 135 131 132 135 135 135 134
111 98 96 97 89 79 70 59 47 39 35 31 29 30 29 25 22 22 26 27 24 25 24 21 22 24 21 20 19 18 21 23 20 18 19 18 19 20 17 13 13 13 12 12 12 12 12 12 11 10 9 9 7 8 14 19 21 24 28 33 38 43 46 51 56 55 50 53 70 87 96 100 103 106 110 111 108 108 114 120 123 123 119 112 109
111 97 95 96 91 84 72 58 45 36 34 31 27 29 30 26 21 21 27 28 25 27 28 23 21 23 22 22 21 17 18 24 22 19 20 19 19 21 20 17 17 16 15 15 13 11 13 15 13 9 8 8 8 8 14 18 19 20 25 30 35 40 45 50 55 58 58 56 60 74 86 92 95 97 98 98 96 94 96 101 104 106 105 101 101
111 104 104 102 93 82 67 53 42 34 32 29 27 30 31 29 24 21 23 28 28 27 29 26 23 22 20 21 22 19 16 20 23 22 22 21 20 22 24 24 23 20 18 19 17 14 15 17 16 13 11 11 10 8 11 16 17 18 21 27 32 35 38 43 47 51 56 57 54 59 70 77 83 86 86 88 90 89 86 85 84 84 86 88 93
118 114 105 95 83 70 56 46 40 34 33 31 27 28 30 31 30 25 21 25 28 27 28 29 26 23 20 18 21 21 18 18 24 30 30 26 24 27 33 35 33 29 26 24 23 20 17 16 17 16 14 13 12 11 11 13 15 17 21 26 30 31 32 36 38 39 47 56 58 57 59 62 67 70 71 72 77 79 78 76 76 77 78 80 82
117 105 92 84 74 60 50 46 43 37 39 39 32 30 32 34 36 32 24 20 23 25 27 30 28 24 20 18 19 20 18 17 20 33 52 48 36 35 43 48 43 38 36 33 32 30 24 19 19 17 13 12 12 11 13 17 17 18 21 27 31 31 33 38 41 39 43 50 54 54 52 51 52 54 54 56 62 68 71 72 73 75 76 76 74
117 107 97 86 72 61 54 50 48 45 43 41 36 35 39 38 38 37 29 23 23 23 23 27 29 25 19 17 17 18 17 16 17 23 40 60 47 37 40 43 41 39 37 35 36 36 30 25 23 18 14 13 13 12 14 18 20 19 20 25 30 32 33 39 45 49 50 50 49 48 48 48 49 51 50 50 53 60 65 67 69 72 74 75 74
119 110 101 90 76 67 60 51 47 47 44 42 44 44 45 42 38 37 34 32 32 29 21 19 22 23 19 15 15 16 15 13 15 16 17 20 29 35 33 29 27 30 33 34 38 38 32 26 23 18 12 12 14 14 14 15 16 18 18 20 24 28 29 32 40 48 51 50 47 46 45 46 49 51 52 53 55 58 61 64 67 69 71 74 76